Regional Weather Roundup
Issued by NWS Grand Forks, ND

Home | Current Version | Previous Version | Graphics & Text | Print | Product List | Glossary On
Versions: 1 2 3 4 5 6 7 8 9 10 11 12 13 14 15 16 17 18 19 20 21 22 23 24 25 26 27 28 29 30 31 32 33 34 35 36 37 38 39 40 41 42 43 44 45 46 47 48 49 50
000
ASUS43 KFGF 020431
RWRFGF
PRAIRIE TO PINES  WEATHER ROUNDUP
NATIONAL WEATHER SERVICE EASTERN NORTH DAKOTA/GRAND FORKS ND
1000 PM CST SUN MAR 01 2015

 **SATELLITE DATA USED TO AUGMENT SKY COVER AT AUTOMATED STATIONS**
 *****  WEATHER ACROSS EASTERN NORTH DAKOTA  *****

CITY           SKY/WX    TMP DP  RH WIND       PRES   REMARKS
GRAND FORKS    CLEAR      8   2  76 SW9       30.34R WCI  -5
GRAND FRKS AFB FAIR       8   2  75 W9        30.34R WCI  -5
GRAND FRKS NWS   N/A      9 N/A N/A W9          N/A  WCI  -5
DEVILS LAKE    CLEAR      9   1  72 W10       30.32R WCI  -6
FARGO          CLEAR     10   3  73 W7        30.38R WCI  -1
WAHPETON ARPT  CLEAR     10   5  79 W9        30.41R WCI  -2
$$

 ***** WEATHER ACROSS CENTRAL AND WESTERN NORTH DAKOTA  *****

CITY           SKY/WX    TMP DP  RH WIND       PRES   REMARKS
BISMARCK       PTCLDY    12   6  77 SW3       30.37R
MINOT          PTCLDY    10   3  73 SW7       30.29S WCI  -1
JAMESTOWN      CLEAR      8   1  73 W7        30.35R WCI  -3
MINOT AFB      PTCLDY     7   3  83 W13       30.29R WCI  -9
GARRISON         N/A      8   4  83 CALM      30.31S
WILLISTON      PTCLDY     8   3  80 SE3       30.27S
DICKINSON      CLEAR      7   3  84 S8        30.26S WCI  -6
HETTINGER      PTCLDY     5   1  83 CALM      30.30S
$$

 *****  OTHER AIRPORT OBSERVATIONS IN OUR AREA  *****

CITY           SKY/WX    TMP DP  RH WIND       PRES   REMARKS
WALHALLA         N/A      9   5  85 W7        30.32R WCI  -3
GRAFTON AIRPOR NOT AVBL
VALLEY CITY AR FAIR       7   1  78 W13       30.36S WCI  -9
CANDO          FAIR       1   0  92 W9        30.30S WCI -14
CAVALIER APRT  FAIR      10   5  79 W10       30.32R WCI  -3
GWINNER        CLEAR     12   5  73 W10       30.41R WCI  -1
ROLLA          FAIR      10   9  92 W13       30.26S WCI  -5
 ***** THE ABOVE OBSERVATIONS ARE NON NWS ARE NOT QUALITY
       CONTROLLED AND MAY MIS-REPORT RAIN FOR SNOW...
$$

  *****  WEATHER ACROSS NORTHERN MINNESOTA  *****

CITY           SKY/WX    TMP DP  RH WIND       PRES   REMARKS
FLAG ISLAND    PTCLDY    12   5  73 W8        30.23R WCI   1
WARROAD        CLEAR      9   3  78 SW9       30.26R WCI  -5
ROSEAU         CLEAR      7   1  78 SW8       30.27R WCI  -6
HALLOCK        CLEAR      5   0  78 W8        30.31R WCI  -8
THF RVR FALLS  CLOUDY     9   5  85 SW6       30.32R WCI  -1
BAUDETTE       PTCLDY    10   3  73 W13       30.23R WCI  -5
WASKISH        CLEAR      3   1  92 SW8       30.28R WCI -10
CROOKSTON      CLEAR      7   1  78 W8        30.36R WCI  -6
STEPHEN NDAWN    N/A      9   3  78 W9          N/A  WCI  -5
GREENBUSH NDAW   N/A      3   1  92 MISG        N/A
$$
  *****  WEATHER ACROSS CENTRAL AND WEST MINNESOTA  *****

CITY           SKY/WX    TMP DP  RH WIND       PRES   REMARKS
FOSSTON        CLEAR     -4  -8  84 CALM      30.33R
BEMIDJI        CLEAR      5   2  88 W7        30.29R WCI  -7
PARK RAPIDS    CLEAR      3   0  87 W6        30.31R WCI  -8
ELBOW LAKE     FAIR      11   8  88 NW6       30.38R WCI   1
WADENA         FLURRIES   9   5  85 NW7       30.33R WCI  -3
DETROIT LAKES  PTCLDY    12   9  85 W7        30.35R WCI   2
MOORHEAD       CLEAR     10   9  92 W6        30.40R WCI   1
FERGUS FALLS   CLEAR      9   3  78 W3        30.42R
MORRIS MN      CLEAR     10   7  85 W8        30.39R WCI  -1
STAPLES        CLEAR      3   1  92 W6        30.34R WCI  -8
$$
  *****  WEATHER ELSEWHERE ACROSS MINNESOTA  *****

CITY           SKY/WX    TMP DP  RH WIND       PRES   REMARKS
DULUTH         MOCLDY    15   5  64 NW14G22   30.21R WCI   0
INTRNTL FALLS  PTCLDY     9   2  73 W8        30.22R WCI  -3
ELY            CLOUDY    12   9  85 W8G16     30.18R WCI   1
CLOQUET        FLURRIES  16   7  67 NW18G29   30.25R WCI  -1
WHEATON        NOT AVBL
BRAINERD       CLEAR     14   6  70 NW9       30.32R WCI   2
HIBBING        CLEAR     12   3  67 W8        30.23R WCI   0
ALEXANDRIA     CLEAR     11   6  81 NW8       30.35R WCI  -1
SAINT CLOUD    CLEAR     17   9  70 NW14      30.34R WCI   3
MINNEAPOLIS    PTCLDY    22  10  60 W18G28    30.34R WCI   7
$$

  *****  WEATHER ACROSS SOUTH DAKOTA  *****

CITY           SKY/WX    TMP DP  RH WIND       PRES   REMARKS
SIOUX FALLS    CLEAR     15  10  80 W6        30.42R WCI   6
BROOKINGS      NOT AVBL
WATERTOWN      CLEAR     11   7  84 W8        30.38R WCI  -1
HURON          CLEAR     11   8  88 N3        30.44R
SISSETON         N/A     13   6  74 NW9       30.40R WCI   1
ABERDEEN       CLEAR      7   3  84 CALM      30.42R
MITCHELL       CLEAR     19  12  74 CALM      30.45R
PIERRE         CLEAR     15  11  83 CALM      30.40R
MOBRIDGE       PTCLDY    10   7  87 CALM      30.36R
RAPID CITY     PTCLDY     7   3  84 CALM      30.31S
$$

  *****  SOME WEATHER IN NEARBY STATES *****

CITY           SKY/WX    TMP DP  RH WIND       PRES   REMARKS
GLASGOW MT     CLEAR     16   8  71 SE13      30.15F WCI   2
GREAT FALLS MT MOCLDY    30  10  43 S17       29.91F WCI  18
CHEYENNE WY    MOCLDY    20  13  74 S12       30.18R WCI   8
SCOTTSBLUFF NE CLOUDY    24  11  57 SE6       30.28R WCI  17
OMAHA NE       PTCLDY    25  17  72 CALM      30.44R
DES MOINES IA  PTCLDY    24  14  65 SW6       30.43R WCI  17
DAVENPORT IA   PTCLDY    11   5  77 W6        30.41R WCI   1
CHICAGO IL     CLEAR     19  13  77 W13       30.32R WCI   6
EAU CLAIRE WI  PTCLDY    15   6  67 SW7       30.28R WCI   5
LA CROSSE WI   CLEAR     18   8  65 S6        30.32R WCI  10
$$

  *****  SOME NATIONAL WEATHER *****

CITY           SKY/WX    TMP DP  RH WIND       PRES   REMARKS
LA GUARDIA NY  CLOUDY    28  25  86 CALM      30.17F FOG
RALEIGH NC     CLOUDY    35  33  92 W3        30.33R FOG
ATLANTA GA     CLOUDY    45  42  89 CALM      30.36F FOG
NEW ORLEANS LA LGT RAIN  58  56  93 E13       30.29S FOG
OKLAHOMA CITY  CLOUDY    30  22  72 N8        30.44R WCI  22
ALBUQUERQUE NM MOCLDY    53  30  41 S13       30.08R
SALT LAKE CITY MOCLDY    40  30  67 CALM      30.00S
LOS ANGELES CA CLOUDY    55  46  71 N6        29.94R
BOISE ID       CLEAR     36  21  54 SE6       30.01F
SEATTLE WA     CLOUDY    47  32  56 N5        29.98F
$$

*** WEATHER ACROSS MANITOBA...SASKATCHEWAN AND ONTARIO ***
                ***ONTARIO***

CITY           SKY/WX    TMP DP  RH WIND       PRES   REMARKS
GERALDTON      PTCLDY    14   5  67 W8        29.95R WCI   3
THUNDER BAY    PTCLDY    16   3  57 NW14G22   30.13R WCI   1
SIOUX LOOKOUT  CLEAR      9  -4  56 NW15G22   30.09R WCI  -8
TORONTO        MOCLDY    19  12  73 W10       30.13F WCI   8
BIG TROUT LK   CLEAR    -11 -17  77 W8        30.01S WCI -28
PICKLE LAKE    NOT AVBL
DRYDEN         CLEAR      9   1  72 W12G18    30.14R WCI  -6
KENORA         PTCLDY    10   7  85 W6        30.18R WCI   1
$$
                *** MANITOBA***

CITY           SKY/WX    TMP DP  RH WIND       PRES   REMARKS
BRANDON        CLEAR     -2  -6  84 W10       30.28R WCI -19
DAUPHIN        CLEAR      9   1  72 W12       30.25R WCI  -6
ISLAND LAKE    CLEAR     -8 -15  71 W3        30.11R
PILOT MOUND      N/A      7   5  92 W3          N/A
THE PAS        CLEAR      7  -4  61 SW7       30.14F WCI  -5
THOMPSON       PTCLDY   -18 -26  69 CALM      30.07F
WINNIPEG       CLEAR      9   1  72 W6        30.29R WCI  -1
LYNN LAKE      MOCLDY     0  -9  65 SW7       29.96F WCI -13
CHURCHILL      CRYSTALS -17 -26  63 NW14      29.97F WCI -40
GILLAM         CLEAR    -15 -24  64 W6        30.05S WCI -29
$$
                ***SASKATCHEWAN***

CITY           SKY/WX    TMP DP  RH WIND       PRES   REMARKS
ESTEVAN        CLEAR      3   0  85 S6        30.25S WCI  -8
KINDERSLEY     PTCLDY    16   9  73 SE17      29.94F WCI   0
LLOYDMINSTER   CLEAR     10   7  85 S13       29.88F WCI  -5
PRINCE ALBERT  CLEAR      7   3  85 W2        30.09F
REGINA         CLEAR      1   0  92 SE10      30.18F WCI -14
YORKTON        CLEAR      3   0  85 SW9       30.20F WCI -11
N. BATTLEFORD  CLEAR      7   5  92 SE10      30.01F WCI  -8
LA RONGE       MOCLDY     9  -4  56 S7        29.98F WCI  -3
SASKATOON      CLEAR     10   5  79 S13       30.08F WCI  -5
SWIFT CURRENT  CLEAR     12   7  79 S16       30.00F WCI  -4
$$
NOTE: THESE ARE AUTOMATED STATIONS WITH LIMITED QUALITY CONTROL
      "FAIR" INDICATES FEW OR NO CLOUDS BELOW 12,000 FEET WITH NO
      SIGNIFICANT WEATHER AND/OR OBSTRUCTIONS TO VISIBILITY.
      SKY/WX - SKY CONDITION AND SIGNIFICANT WEATHER.
      TMP - AIR TEMPERATURE.    DP   - DEWPOINT TEMPERATURE.
      RH  - RELATIVE HUMIDITY.  PRES - PRESSURE.
      HX  - HEAT INDEX.         WCI  - WIND CHILL INDEX.
$


USA.gov is the U.S. government's official web portal to all federal, state and local government web resources and services.